Weather History for Lamoni, IA

Change the Weather History Date:

Friday, March 16, 2012

  Actual Average Record
Temperature  
Mean Temperature 70 °F 40 °F  
Max Temperature 81 °F 50 °F 81 °F (2012)
Min Temperature 58 °F 30 °F 16 °F (1970)
Degree Days  
Heating Degree Days 0 25  
Month to date heating degree days 273 452  
Since 1 July heating degree days 4401 5169  
Cooling Degree Days 5 0  
Month to date cooling degree days 13 0  
Year to date cooling degree days 13 0  
Growing Degree Days 18 (Base 50)    
Moisture  
Dew Point 59 °F    
Average Humidity 73    
Maximum Humidity 100    
Minimum Humidity 45    
Precipitation  
Precipitation 0.00 in 0.08 in 0.81 in (1965)
Month to date precipitation 0.58 1.01  
Year to date precipitation 2.85  
Sea Level Pressure  
Sea Level Pressure 29.93 in    
Wind  
Wind Speed 12 mph (South)    
Max Wind Speed 24 mph    
Max Gust Speed 30 mph    
Visibility 7 miles    
Events Fog    
T = Trace of Precipitation, MM = Missing Value Source: NWS Daily Summary

Daily Weather History Graph

Daily Weather History Graph

Search for Another Location

Airport:

Trip Planner

Search our weather history database for the weather conditions in past years. The results will help you decide how hot, cold, wet, or windy it might be!

Date:

Astronomy

Mar. 16, 2012 Rise Set
Actual Time 7:24 AM CDT 7:24 PM CDT
Civil Twilight 6:57 AM CDT 7:51 PM CDT
Nautical Twilight 6:25 AM CDT 8:23 PM CDT
Astronomical Twilight 5:53 AM CDT 8:55 PM CDT
Moon 3:45 AM CDT (3/16) 1:43 PM CDT (3/16)
Length of Visible Light 12h 53m
Length of Day
11h 59m
Waning Crescent, 32% of the Moon is Illuminated
Mar 16
Waning Crescent
Mar 22
New
Mar 30
First Quarter
Apr 6
Full
Apr 13
Last Quarter

Hourly Weather History & Observations

Time (CDT) Temp. Heat Index Dew Point Humidity Pressure Visibility Wind Dir Wind Speed Gust Speed Precip Events Conditions
12:53 AM 64.0 °F - 59.0 °F 84% 29.96 in 10.0 mi SSE 4.6 mph - N/A   Mostly Cloudy
1:53 AM 63.0 °F - 59.0 °F 87% 29.95 in 9.0 mi SSE 6.9 mph - N/A   Clear
2:53 AM 62.1 °F - 59.0 °F 90% 29.95 in 7.0 mi South 8.1 mph - N/A   Partly Cloudy
3:53 AM 61.0 °F - 59.0 °F 93% 29.94 in 6.0 mi South 6.9 mph - N/A   Partly Cloudy
4:53 AM 60.1 °F - 59.0 °F 96% 29.94 in 5.0 mi South 8.1 mph - N/A   Scattered Clouds
5:53 AM 60.1 °F - 59.0 °F 96% 29.95 in 4.0 mi South 6.9 mph - N/A   Clear
6:43 AM 57.2 °F - 57.2 °F 100% 29.96 in 1.5 mi South 6.9 mph - N/A   Clear
6:53 AM 59.0 °F - 57.9 °F 96% 29.95 in 1.8 mi SSW 5.8 mph - N/A   Clear
7:14 AM 57.2 °F - 57.2 °F 100% 29.96 in 0.8 mi SSW 5.8 mph - N/A   Mist
7:53 AM 57.9 °F - 57.9 °F 100% 29.96 in 0.2 mi South 5.8 mph - N/A Fog Fog
8:26 AM 59.0 °F - 59.0 °F 100% 29.97 in 1.2 mi South 5.8 mph - N/A   Mostly Cloudy
8:38 AM 60.8 °F - 59.0 °F 94% 29.97 in 2.5 mi South 5.8 mph - N/A   Scattered Clouds
8:51 AM 60.8 °F - 59.0 °F 94% 29.97 in 3.0 mi South 5.8 mph - N/A   Clear
8:53 AM 60.1 °F - 59.0 °F 96% 29.96 in 3.0 mi South 5.8 mph - N/A   Clear
9:11 AM 60.8 °F - 60.8 °F 100% 29.97 in 3.0 mi South 5.8 mph - N/A   Partly Cloudy
9:20 AM 60.8 °F - 60.8 °F 100% 29.97 in 2.5 mi South 6.9 mph - N/A   Scattered Clouds
9:27 AM 62.6 °F - 60.8 °F 94% 29.98 in 5.0 mi SSW 9.2 mph - N/A   Partly Cloudy
9:53 AM 66.9 °F - 63.0 °F 87% 29.97 in 10.0 mi SSW 13.8 mph - N/A   Clear
10:53 AM 71.1 °F - 63.0 °F 75% 29.96 in 10.0 mi South 12.7 mph - N/A   Partly Cloudy
12:53 PM 75.9 °F - 59.0 °F 56% 29.91 in 10.0 mi SSW 16.1 mph 23.0 mph N/A   Partly Cloudy
1:53 PM 78.1 °F - 57.9 °F 50% 29.89 in 10.0 mi South 17.3 mph 25.3 mph N/A   Scattered Clouds
2:53 PM 80.1 °F 80.6 °F 57.9 °F 47% 29.87 in 10.0 mi SSW 21.9 mph 28.8 mph N/A   Partly Cloudy
3:53 PM 80.1 °F 80.4 °F 57.0 °F 45% 29.87 in 10.0 mi SSW 21.9 mph 27.6 mph N/A   Scattered Clouds
4:53 PM 79.0 °F - 59.0 °F 50% 29.86 in 10.0 mi South 16.1 mph 24.2 mph N/A   Mostly Cloudy
5:53 PM 78.1 °F - 57.0 °F 48% 29.86 in 10.0 mi South 15.0 mph 24.2 mph N/A   Clear
6:53 PM 75.9 °F - 57.9 °F 54% 29.86 in 10.0 mi South 11.5 mph - N/A   Clear
7:53 PM 73.0 °F - 57.9 °F 59% 29.87 in 10.0 mi SSE 8.1 mph - N/A   Clear
8:53 PM 70.0 °F - 57.0 °F 63% 29.88 in 10.0 mi South 8.1 mph - N/A   Clear
9:53 PM 70.0 °F - 57.0 °F 63% 29.89 in 10.0 mi South 11.5 mph - N/A   Clear
10:53 PM 70.0 °F - 59.0 °F 68% 29.89 in 10.0 mi South 17.3 mph - N/A   Clear
11:53 PM 68.0 °F - 60.1 °F 76% 29.91 in 10.0 mi South 12.7 mph - N/A   Clear